Location: Niverville
(49.6028°N, 97.0419°W)
Time: 12:16:01
(UTC-06:00)

Amateur Radio Satellites - All Passes

Search period start: 22 January 2017 11:46
Search period end: 23 January 2017 11:46
Location: Niverville, 49.6028°N, 97.0419°W

Satellite Date Start Highest point End Downlink Frequencies (MHz)
Time Altitude Azimuth
HUMSAT D 22 Jan 11:52:23 11:55:53 25° 296° (WNW) 11:59:24 437.325/437.525
SPROUT 22 Jan 11:58:17 12:01:24 20° 91° (E) 12:04:31 437.525
SO-50 22 Jan 12:03:20 12:05:21 13° 356° (N) 12:07:22 436.795
POPSAT HIP 1 22 Jan 12:05:14 12:08:52 28° 265° (W) 12:12:32 437.405
AO-7 22 Jan 12:06:32 12:11:18 17° 34° (NE) 12:16:03 29.400- 29.500
BY70-1 22 Jan 12:06:46 12:09:56 41° 290° (WNW) 12:12:54 436.1900
UKube-1 22 Jan 12:06:53 12:08:17 11° 87° (E) 12:09:41 .
DX 1 22 Jan 12:10:58 12:13:50 17° 91° (E) 12:16:41 434.975-435.025
DUCHIFAT 1 22 Jan 12:13:20 12:16:53 27° 265° (W) 12:20:28 145.980
Oscar 19 22 Jan 12:18:56 12:23:53 46° 67° (ENE) 12:28:51 437.125/150
NANOSAT C BR1 22 Jan 12:20:28 12:23:43 22° 267° (W) 12:27:00 145.865
Cosmos 2491 22 Jan 12:20:40 12:29:00 44° 68° (ENE) 12:37:18 435.465 / 435.565
CUBEBUG 1 22 Jan 12:25:55 12:30:16 73° 104° (ESE) 12:34:34 437.445
YUBILEINY 22 Jan 12:35:12 12:40:39 18° 72° (ENE) 12:46:05 435.215
BUGSAT 1 22 Jan 12:38:35 12:42:19 35° 262° (W) 12:46:03 437.445
AO-85 22 Jan 12:43:23 12:45:23 13° 111° (ESE) 12:47:20 145.980
AISAT 22 Jan 12:48:11 12:52:36 79° 104° (ESE) 12:56:58 437.250
Gurwin Techsat 1B 22 Jan 12:50:38 12:55:43 48° 68° (ENE) 13:00:50 435.225
DANDE 22 Jan 12:51:59 12:57:00 18° 53° (NE) 13:02:19 436.750
50 SAT 22 Jan 12:52:14 12:55:49 69° 103° (ESE) 12:59:20 437.505
ITAMSAT 1 22 Jan 13:08:29 13:12:00 19° 56° (NE) 13:15:33 435.822/435.867
TISAT 1 22 Jan 13:18:17 13:21:25 20° 92° (E) 13:24:32 437.305
ESTCUBE 1 22 Jan 13:20:34 13:24:15 25° 297° (WNW) 13:27:55 437.505/2401.250
VELOX 1 22 Jan 13:21:34 13:25:52 53° 290° (WNW) 13:30:07 145.980
CUSAT 1 22 Jan 13:21:44 13:29:31 52° 69° (ENE) 13:36:50 437.405
SPROUT 22 Jan 13:33:29 13:37:36 49° 289° (WNW) 13:41:42 437.525
UKube-1 22 Jan 13:40:36 13:44:57 88° 286° (WNW) 13:49:15 .
SO-50 22 Jan 13:44:33 13:47:38 17° 21° (NNE) 13:50:40 436.795
DX 1 22 Jan 13:46:07 13:50:25 59° 289° (WNW) 13:54:40 434.975-435.025
AO-7 22 Jan 13:54:15 14:02:10 49° 58° (ENE) 14:10:05 29.400- 29.500
Oscar 19 22 Jan 13:58:52 14:03:23 29° 266° (W) 14:07:55 437.125/150
AIST 1 22 Jan 13:59:04 14:03:22 62° 96° (E) 14:07:41
CUBEBUG 1 22 Jan 14:03:24 14:06:01 16° 302° (WNW) 14:08:38 437.445
Cosmos 2504 22 Jan 14:16:19 14:24:02 40° 86° (E) 14:31:19 435.465 / 435.565
Cosmos 2491 22 Jan 14:17:39 14:26:03 52° 271° (W) 14:34:27 435.465 / 435.565
AO-85 22 Jan 14:20:36 14:25:13 82° 127° (SE) 14:29:31 145.980
AISAT 22 Jan 14:25:58 14:28:30 15° 303° (WNW) 14:31:00 437.250
50 SAT 22 Jan 14:27:05 14:28:31 12° 301° (WNW) 14:29:56 437.505
YUBILEINY 22 Jan 14:27:06 14:35:52 75° 95° (E) 14:44:43 435.215
O/OREOS (USA 219) 22 Jan 14:29:37 14:33:13 23° 48° (NE) 14:36:48 437.305
ITUPSAT 1 22 Jan 14:30:15 14:34:11 24° 93° (E) 14:38:06 437.325
Gurwin Techsat 1B 22 Jan 14:31:21 14:35:54 28° 266° (W) 14:40:29 435.225
DANDE 22 Jan 14:33:31 14:41:10 62° 73° (ENE) 14:49:28 436.750
MOZHAYETS 4 22 Jan 14:40:30 14:41:32 11° 85° (E) 14:42:33
ITAMSAT 1 22 Jan 14:45:42 14:50:53 81° 255° (WSW) 14:56:06 435.822/435.867
TISAT 1 22 Jan 14:53:17 14:57:17 46° 290° (WNW) 15:01:17 437.305
BEESAT 22 Jan 15:02:54 15:07:33 47° 99° (E) 15:12:10 436.000
CUSAT 1 22 Jan 15:03:57 15:11:24 45° 271° (W) 15:18:22 437.405
SWISSCUBE 22 Jan 15:04:45 15:09:30 55° 101° (E) 15:14:12 437.505
HORYU 2 22 Jan 15:16:19 15:17:27 11° 53° (NE) 15:18:35 437.375
UKube-1 22 Jan 15:18:21 15:20:20 13° 304° (NW) 15:22:18 .
GOMX 1 22 Jan 15:21:35 15:23:54 13° 55° (NE) 15:26:11 467.674
SO-50 22 Jan 15:24:37 15:29:05 53° 44° (NE) 15:33:28 436.795
BRITE-PL 22 Jan 15:26:36 15:31:30 31° 63° (ENE) 15:36:16 437.365/2234.400
AIST 1 22 Jan 15:38:37 15:41:25 17° 296° (WNW) 15:44:13
AO-7 22 Jan 15:46:54 15:54:56 50° 259° (W) 16:03:04 29.400- 29.500
BEESAT 3 22 Jan 15:49:40 15:52:56 26° 117° (ESE) 15:56:16 437.485
AO-85 22 Jan 16:02:36 16:06:05 22° 328° (NNW) 16:09:26 145.980
ITUPSAT 1 22 Jan 16:07:38 16:12:16 49° 292° (WNW) 16:16:54 437.325
O/OREOS (USA 219) 22 Jan 16:08:32 16:12:58 58° 248° (WSW) 16:17:24 437.305
Cosmos 2504 22 Jan 16:08:54 16:17:14 55° 287° (WNW) 16:25:04 435.465 / 435.565
MOZHAYETS 4 22 Jan 16:14:47 16:19:28 79° 104° (ESE) 16:24:07
CUTE-I 22 Jan 16:15:00 16:18:37 19° 55° (NE) 16:22:14 437.470
DANDE 22 Jan 16:16:39 16:23:40 38° 271° (W) 16:31:08 436.750
Cosmos 2491 22 Jan 16:18:33 16:20:40 11° 294° (WNW) 16:22:46 435.465 / 435.565
LilacSat-2 22 Jan 16:21:39 16:23:28 13° 59° (ENE) 16:25:19 437.200
YUBILEINY 22 Jan 16:25:58 16:33:35 31° 299° (WNW) 16:41:16 435.215
ITAMSAT 1 22 Jan 16:29:00 16:31:11 13° 274° (W) 16:33:24 435.822/435.867
M-CUBED/EXP-1 PRIME 22 Jan 16:30:58 16:33:53 27° 102° (ESE) 16:36:42 437.505
KKS-1 22 Jan 16:37:17 16:41:31 44° 99° (E) 16:45:45 437.445
BEESAT 2 22 Jan 16:39:15 16:42:53 36° 120° (ESE) 16:46:36 435.950
BEESAT 22 Jan 16:41:08 16:45:06 26° 298° (WNW) 16:49:03 436.000
SWISSCUBE 22 Jan 16:43:11 16:46:57 23° 300° (WNW) 16:50:44 437.505
HORYU 2 22 Jan 16:48:48 16:53:11 69° 72° (ENE) 16:57:35 437.375
HO-68 22 Jan 16:51:00 16:55:24 18° 44° (NE) 16:59:47 435.675
GOMX 1 22 Jan 16:55:55 17:01:12 70° 73° (ENE) 17:06:13 467.674
Cubesat XI-IV 22 Jan 16:57:23 17:02:14 37° 64° (ENE) 17:07:05 437.490
NOAA 15 22 Jan 16:57:34 17:02:28 39° 65° (ENE) 17:07:23 137.62
BRITE-PL 22 Jan 17:04:12 17:09:44 52° 261° (W) 17:15:09 437.365/2234.400
AUBIESAT-1 22 Jan 17:05:15 17:08:35 55° 108° (ESE) 17:11:49 437.475
SO-50 22 Jan 17:05:33 17:09:17 26° 244° (WSW) 17:12:59 436.795
CUBESAT XI-V 22 Jan 17:07:01 17:11:34 46° 98° (E) 17:16:04 437.345
NOAA 18 22 Jan 17:21:19 17:26:18 37° 63° (ENE) 17:31:17 137.9125
DOVE 4 22 Jan 17:23:08 17:27:52 53° 71° (ENE) 17:32:20 437.250
STARS 22 Jan 17:23:38 17:27:59 60° 102° (ESE) 17:32:18 437.465
BEESAT 3 22 Jan 17:26:39 17:30:24 43° 317° (NW) 17:34:13 437.485
CUTE 1.7 + AOD 2 22 Jan 17:38:09 17:39:55 12° 56° (ENE) 17:41:42 437.475
AO-85 22 Jan 17:47:19 17:48:00 10° 352° (N) 17:48:41 145.980
CUTE-I 22 Jan 17:52:43 17:58:02 83° 254° (WSW) 18:03:23 437.470
MOZHAYETS 4 22 Jan 17:53:11 17:56:03 16° 302° (WNW) 17:58:56
LilacSat-2 22 Jan 17:53:29 17:57:15 70° 258° (WSW) 18:01:04 437.200
M-CUBED/EXP-1 PRIME 22 Jan 18:05:34 18:08:20 23° 301° (WNW) 18:11:00 437.505
CANX-2 22 Jan 18:05:55 18:09:20 24° 64° (ENE) 18:12:49 2200.000
Cosmos 2504 22 Jan 18:08:33 18:12:40 14° 311° (NW) 18:16:41 435.465 / 435.565
SEEDS 22 Jan 18:12:25 18:15:16 18° 60° (ENE) 18:18:08 437.485
COMPASS 1 22 Jan 18:14:02 18:15:59 13° 57° (ENE) 18:17:58 437.405
KKS-1 22 Jan 18:14:17 18:17:53 25° 298° (WNW) 18:21:28 437.445
BEESAT 2 22 Jan 18:17:04 18:20:43 34° 320° (NW) 18:24:25 435.950
AAUSAT CUBESAT 2 22 Jan 18:22:54 18:24:43 13° 57° (ENE) 18:26:32 437.432
Cosmos 2499 22 Jan 18:24:04 18:30:12 24° 80° (E) 18:36:02 435.465 / 435.565
HORYU 2 22 Jan 18:27:39 18:30:13 15° 271° (W) 18:32:48 437.375
CINEMA 3 22 Jan 18:34:06 18:38:23 64° 73° (ENE) 18:42:34 145.822/145.860
HO-68 22 Jan 18:34:45 18:41:49 62° 66° (ENE) 18:48:54 435.675
GOMX 1 22 Jan 18:35:56 18:39:41 19° 270° (W) 18:43:20 467.674
Cubesat XI-IV 22 Jan 18:37:22 18:42:17 38° 263° (W) 18:47:16 437.490
NOAA 15 22 Jan 18:37:25 18:42:16 36° 263° (W) 18:47:11 137.62
AUBIESAT-1 22 Jan 18:40:53 18:42:38 14° 306° (NW) 18:44:21 437.475
CUBESAT XI-V 22 Jan 18:44:51 18:48:43 26° 297° (WNW) 18:52:32 437.345
Oscar 11 22 Jan 18:47:41 18:48:07 10° 54° (NE) 18:48:33 145.826/435.025
AIST 2 22 Jan 18:59:30 19:02:53 25° 116° (ESE) 19:06:20 435.215
STARS 22 Jan 19:00:53 19:03:56 19° 300° (WNW) 19:06:58 437.465
NOAA 18 22 Jan 19:01:46 19:06:55 41° 262° (W) 19:12:06 137.9125
DOVE 4 22 Jan 19:02:05 19:05:49 22° 268° (W) 19:09:25 437.250
BEESAT 3 22 Jan 19:07:04 19:09:01 13° 339° (NNW) 19:10:59 437.485
CUTE 1.7 + AOD 2 22 Jan 19:10:48 19:15:04 86° 73° (ENE) 19:19:23 437.475
CUBEBUG 2 22 Jan 19:12:10 19:16:02 39° 69° (ENE) 19:19:56 437.445
GONETS M04 22 Jan 19:15:40 19:23:37 42° 85° (E) 19:31:38
FUNcube-1 22 Jan 19:24:18 19:27:28 21° 62° (ENE) 19:30:40 145.935
AO-85 22 Jan 19:28:27 19:30:15 12° 17° (NNE) 19:32:01 145.980
UWE-3 22 Jan 19:35:05 19:39:01 44° 70° (ENE) 19:43:00 435.000/436.395/437.385
CUTE-I 22 Jan 19:36:22 19:38:56 13° 274° (W) 19:41:28 437.470
CANX-2 22 Jan 19:40:57 19:45:00 42° 263° (W) 19:49:05 2200.000
SEEDS 22 Jan 19:46:21 19:50:32 61° 259° (W) 19:54:47 437.485
COMPASS 1 22 Jan 19:46:42 19:50:54 87° 251° (WSW) 19:55:10 437.405
ZACube-1 22 Jan 19:48:06 19:51:55 37° 68° (ENE) 19:55:49 437.345
STRAND 1 22 Jan 19:52:35 19:57:43 63° 102° (ESE) 20:02:49 437.568
AAUSAT CUBESAT 2 22 Jan 19:55:20 19:59:31 90° 142° (SE) 20:03:46 437.432
BEESAT 2 22 Jan 19:58:04 19:59:40 12° 343° (NNW) 20:01:16 435.950
CINEMA 3 22 Jan 20:13:25 20:15:57 15° 270° (W) 20:18:27 145.822/145.860
Cosmos 2499 22 Jan 20:14:15 20:22:34 82° 280° (W) 20:30:15 435.465 / 435.565
Oscar 11 22 Jan 20:19:07 20:23:24 67° 73° (ENE) 20:27:44 145.826/435.025
HO-68 22 Jan 20:23:39 20:29:58 32° 266° (W) 20:36:20 435.675
AIST 2 22 Jan 20:37:07 20:41:08 49° 316° (NW) 20:45:15 435.215
CUBEBUG 2 22 Jan 20:49:33 20:52:50 22° 267° (W) 20:56:09 437.445
DELFI C3 22 Jan 20:49:41 20:53:33 49° 71° (ENE) 20:57:28 145.870
CUTE 1.7 + AOD 2 22 Jan 20:50:05 20:51:33 11° 274° (W) 20:52:59 437.475
FUNcube-1 22 Jan 20:59:29 21:03:26 45° 261° (W) 21:07:30 145.935
AO-85 22 Jan 21:08:02 21:11:47 38° 41° (NE) 21:15:26 145.980
HUMSAT D 22 Jan 21:11:29 21:15:26 48° 70° (ENE) 21:19:29 437.325/437.525
GONETS M04 22 Jan 21:11:46 21:20:15 54° 288° (WNW) 21:28:52
PRISM 22 Jan 21:11:53 21:15:15 23° 94° (E) 21:18:34 437.425
UWE-3 22 Jan 21:12:36 21:15:43 20° 268° (W) 21:18:52 435.000/436.395/437.385
ESTCUBE 1 22 Jan 21:13:42 21:15:09 11° 54° (NE) 21:16:37 437.505/2401.250
ANTELSAT 22 Jan 21:17:46 21:18:44 11° 86° (E) 21:19:42 437.575/2403.000
ZACube-1 22 Jan 21:24:57 21:28:21 24° 267° (W) 21:31:47 437.345
COMPASS 1 22 Jan 21:26:39 21:27:08 10° 275° (W) 21:27:38 437.405
STRAND 1 22 Jan 21:32:31 21:36:29 23° 301° (WNW) 21:40:27 437.568
AAUSAT CUBESAT 2 22 Jan 21:34:46 21:35:39 11° 274° (W) 21:36:31 437.432
CUBEBUG 1 22 Jan 21:51:51 21:54:20 15° 58° (ENE) 21:56:49 437.445
Oscar 11 22 Jan 21:57:29 22:00:00 15° 271° (W) 22:02:33 145.826/435.025
RS-15 22 Jan 22:04:55 22:13:51 26° 99° (E) 22:22:58 29.354- 29.394
ISS 22 Jan 22:10:03 22:12:58 30° 147° (SSE) 22:15:53 145.825
Cosmos 2499 22 Jan 22:11:06 22:16:54 21° 303° (WNW) 22:22:28 435.465 / 435.565
AISAT 22 Jan 22:14:54 22:17:47 17° 59° (ENE) 22:20:41 437.250
AIST 2 22 Jan 22:18:07 22:20:36 15° 338° (NNW) 22:23:05 435.215
JAS-2 22 Jan 22:19:41 22:25:36 26° 90° (E) 22:31:50 435.910
UNISAT 6 22 Jan 22:23:17 22:27:35 45° 99° (E) 22:31:56 437.425
BY70-1 22 Jan 22:24:15 22:27:23 74° 76° (ENE) 22:30:44 436.1900
BEESAT 3 22 Jan 22:24:57 22:27:36 17° 27° (NNE) 22:30:15 437.485
DELFI C3 22 Jan 22:25:51 22:28:38 18° 269° (W) 22:31:26 145.870
TIGRISAT 22 Jan 22:35:44 22:40:06 55° 101° (E) 22:44:33 435.000
YUBILEINY 22 Jan 22:36:56 22:40:47 13° 42° (NE) 22:44:37 435.215
ESTCUBE 1 22 Jan 22:46:37 22:51:08 70° 73° (ENE) 22:55:41 437.505/2401.250
PRISM 22 Jan 22:46:50 22:50:40 38° 292° (WNW) 22:54:27 437.425
VELOX 1 22 Jan 22:46:54 22:50:46 30° 65° (ENE) 22:54:39 145.980
HUMSAT D 22 Jan 22:48:20 22:51:20 19° 269° (W) 22:54:22 437.325/437.525
AO-85 22 Jan 22:48:38 22:52:05 29° 241° (WSW) 22:55:28 145.980
ANTELSAT 22 Jan 22:51:39 22:56:07 83° 103° (ESE) 23:00:40 437.575/2403.000
SPROUT 22 Jan 22:55:38 22:59:11 26° 64° (ENE) 23:02:44 437.525
UKube-1 22 Jan 23:04:38 23:07:39 19° 59° (ENE) 23:10:39 .
DX 1 22 Jan 23:10:12 23:13:52 27° 63° (ENE) 23:17:31 434.975-435.025
GONETS M04 22 Jan 23:15:02 23:19:38 15° 315° (NW) 23:24:15
BEESAT 2 22 Jan 23:15:29 23:18:33 20° 31° (NNE) 23:21:37 435.950
QB50P1 22 Jan 23:18:18 23:21:17 19° 91° (E) 23:24:16 145.935-145.965
POLYITAN 1 22 Jan 23:23:10 23:26:24 21° 92° (E) 23:29:37 437.675
QB50P2 22 Jan 23:24:25 23:27:49 23° 93° (E) 23:31:10 145.880/145.840
CUBEBUG 1 22 Jan 23:25:38 23:30:02 81° 255° (WSW) 23:34:28 437.445
50 SAT 22 Jan 23:30:36 23:34:07 54° 72° (ENE) 23:37:39 437.505
POPSAT HIP 1 22 Jan 23:44:55 23:48:45 32° 96° (E) 23:52:33 437.405
ISS 22 Jan 23:46:00 23:49:16 77° 346° (NNW) 23:52:33 145.825
AISAT 22 Jan 23:49:21 23:53:47 69° 257° (WSW) 23:58:13 437.250
PCSat 22 Jan 23:49:34 23:53:51 24° 109° (ESE) 23:58:07 145.827
DUCHIFAT 1 22 Jan 23:52:13 23:56:03 33° 96° (E) 23:59:52 145.980
NANOSAT C BR1 22 Jan 23:59:08 00:03:09 42° 99° (E) 00:07:10 145.865
AIST 2 23 Jan 00:00:16 00:00:51 10° 3° (N) 00:01:25 435.215
UNISAT 6 23 Jan 00:00:29 00:04:05 24° 297° (WNW) 00:07:43 437.425
AIST 1 23 Jan 00:01:51 00:05:25 25° 69° (ENE) 00:08:55
BEESAT 3 23 Jan 00:01:55 00:05:56 69° 49° (NE) 00:09:55 437.485
Cosmos 2504 23 Jan 00:03:59 00:08:47 18° 53° (NE) 00:13:25 435.465 / 435.565
JAS-2 23 Jan 00:04:03 00:11:12 80° 288° (WNW) 00:18:58 435.910
RS-15 23 Jan 00:12:26 00:24:23 80° 124° (SE) 00:36:48 29.354- 29.394
TIGRISAT 23 Jan 00:13:12 00:16:28 21° 298° (WNW) 00:19:48 435.000
TISAT 1 23 Jan 00:13:47 00:17:18 27° 65° (ENE) 00:20:50 437.305
BUGSAT 1 23 Jan 00:15:53 00:19:06 22° 94° (E) 00:22:18 437.445
VELOX 1 23 Jan 00:23:04 00:27:09 35° 263° (W) 00:31:15 145.980
ESTCUBE 1 23 Jan 00:25:41 00:28:26 16° 271° (W) 00:31:11 437.505/2401.250
Oscar 19 23 Jan 00:28:35 00:29:52 11° 84° (E) 00:31:09 437.125/150
ANTELSAT 23 Jan 00:29:47 00:32:16 15° 302° (WNW) 00:34:48 437.575/2403.000
SPROUT 23 Jan 00:31:01 00:34:59 37° 263° (W) 00:38:57 437.525
YUBILEINY 23 Jan 00:31:57 00:40:27 48° 70° (ENE) 00:48:50 435.215
BEESAT 23 Jan 00:38:19 00:41:00 15° 55° (NE) 00:43:39 436.000
UKube-1 23 Jan 00:39:00 00:43:16 60° 258° (WSW) 00:47:35 .
SWISSCUBE 23 Jan 00:39:50 00:42:51 17° 56° (NE) 00:45:52 437.505
DX 1 23 Jan 00:45:48 00:49:54 39° 262° (W) 00:54:01 434.975-435.025
BEESAT 2 23 Jan 00:52:48 00:56:52 86° 237° (WSW) 01:00:55 435.950
QB50P1 23 Jan 00:53:15 00:57:21 51° 289° (WNW) 01:01:27 145.935-145.965
POLYITAN 1 23 Jan 00:58:22 01:02:25 46° 290° (WNW) 01:06:29 437.675
QB50P2 23 Jan 00:59:46 01:03:46 42° 291° (WNW) 01:07:46 145.880/145.840
Gurwin Techsat 1B 23 Jan 01:03:58 01:06:27 13° 86° (E) 01:08:56 435.225
50 SAT 23 Jan 01:05:53 01:07:39 13° 270° (W) 01:09:27 437.505
POPSAT HIP 1 23 Jan 01:20:48 01:24:28 29° 294° (WNW) 01:28:08 437.405
ISS 23 Jan 01:22:43 01:25:57 60° 5° (N) 01:29:10 145.825
Cosmos 2491 23 Jan 01:27:46 01:35:42 42° 85° (E) 01:43:41 435.465 / 435.565
DUCHIFAT 1 23 Jan 01:28:03 01:31:39 28° 295° (WNW) 01:35:16 145.980
PCSat 23 Jan 01:31:24 01:36:47 67° 309° (NW) 01:42:14 145.827
NANOSAT C BR1 23 Jan 01:35:19 01:38:40 23° 297° (WNW) 01:42:00 145.865
AIST 2 23 Jan 01:38:02 01:40:59 18° 27° (NNE) 01:43:56 435.215
AIST 1 23 Jan 01:39:11 01:43:07 36° 268° (W) 01:47:01
BEESAT 3 23 Jan 01:40:34 01:43:05 16° 247° (WSW) 01:45:37 437.485
ITUPSAT 1 23 Jan 01:40:52 01:45:25 46° 68° (ENE) 01:50:00 437.325
MOZHAYETS 4 23 Jan 01:45:25 01:48:33 18° 59° (ENE) 01:51:43
M-CUBED/EXP-1 PRIME 23 Jan 01:48:23 01:50:14 13° 53° (NE) 01:52:02 437.505
TISAT 1 23 Jan 01:49:00 01:52:50 35° 263° (W) 01:56:41 437.305
JAS-2 23 Jan 01:50:14 01:55:22 22° 307° (NW) 02:00:49 435.910
BUGSAT 1 23 Jan 01:50:50 01:54:37 39° 291° (WNW) 01:58:23 437.445
Cosmos 2504 23 Jan 01:56:15 02:03:44 75° 78° (ENE) 02:10:53 435.465 / 435.565
Oscar 19 23 Jan 02:04:56 02:10:08 72° 103° (ESE) 02:15:17 437.125/150
KKS-1 23 Jan 02:06:35 02:07:49 11° 53° (NE) 02:09:03 437.445
BEESAT 23 Jan 02:13:19 02:18:04 88° 82° (E) 02:22:54 436.000
SWISSCUBE 23 Jan 02:15:17 02:20:03 81° 256° (WSW) 02:24:51 437.505
AUBIESAT-1 23 Jan 02:21:15 02:24:13 20° 58° (ENE) 02:27:04 437.475
RS-15 23 Jan 02:26:20 02:38:05 50° 333° (NNW) 02:50:05 29.354- 29.394
CUSAT 1 23 Jan 02:27:50 02:32:57 33° 85° (E) 02:39:10 437.405
YUBILEINY 23 Jan 02:29:00 02:37:18 48° 272° (W) 02:45:32 435.215
BEESAT 2 23 Jan 02:32:31 02:34:00 12° 250° (WSW) 02:35:28 435.950
CUBESAT XI-V 23 Jan 02:40:19 02:42:15 12° 54° (NE) 02:44:11 437.345
Gurwin Techsat 1B 23 Jan 02:41:53 02:47:15 82° 105° (ESE) 02:52:35 435.225
STARS 23 Jan 02:50:34 02:52:46 14° 56° (NE) 02:54:58 437.465
ITAMSAT 1 23 Jan 02:54:29 02:58:49 26° 93° (E) 03:03:07 435.822/435.867
ISS 23 Jan 02:59:15 03:02:28 59° 205° (SSW) 03:05:40 145.825
AIST 2 23 Jan 03:15:58 03:20:14 68° 48° (NE) 03:24:27 435.215
PCSat 23 Jan 03:17:12 03:21:12 20° 332° (NNW) 03:25:14 145.827
ITUPSAT 1 23 Jan 03:19:30 03:23:27 26° 266° (W) 03:27:27 437.325
M-CUBED/EXP-1 PRIME 23 Jan 03:19:59 03:24:14 88° 69° (ENE) 03:28:10 437.505
MOZHAYETS 4 23 Jan 03:20:41 03:25:15 68° 258° (WSW) 03:29:52
Cosmos 2491 23 Jan 03:23:54 03:32:22 54° 288° (WNW) 03:40:55 435.465 / 435.565
KKS-1 23 Jan 03:39:09 03:43:35 70° 72° (ENE) 03:48:00 437.445
AO-7 23 Jan 03:43:02 03:51:02 46° 99° (E) 03:58:55 29.400- 29.500
Oscar 19 23 Jan 03:45:10 03:48:57 21° 303° (WNW) 03:52:42 437.125/150
DANDE 23 Jan 03:47:25 03:51:31 39° 89° (E) 03:56:55 436.750
Cosmos 2504 23 Jan 03:50:42 03:56:16 24° 281° (W) 04:01:41 435.465 / 435.565
BEESAT 23 Jan 03:54:19 03:56:33 13° 273° (W) 03:58:47 436.000
AUBIESAT-1 23 Jan 03:54:22 03:58:24 50° 253° (WSW) 04:02:12 437.475
SWISSCUBE 23 Jan 03:57:08 03:58:37 11° 274° (W) 04:00:06 437.505
CUSAT 1 23 Jan 04:08:49 04:14:30 53° 291° (WNW) 04:21:38 437.405
Cosmos 2499 23 Jan 04:11:05 04:11:51 10° 44° (NE) 04:12:37 435.465 / 435.565
CUBESAT XI-V 23 Jan 04:14:07 04:18:49 73° 73° (ENE) 04:23:33 437.345
Gurwin Techsat 1B 23 Jan 04:22:55 04:26:35 19° 304° (NW) 04:30:14 435.225
STARS 23 Jan 04:24:06 04:28:30 88° 265° (W) 04:32:53 437.465
ITAMSAT 1 23 Jan 04:33:30 04:38:35 52° 292° (WNW) 04:43:37 435.822/435.867
ISS 23 Jan 04:36:49 04:38:25 13° 223° (SW) 04:40:00 145.825
RS-15 23 Jan 04:42:40 04:54:07 40° 6° (N) 05:05:29 29.354- 29.394
AIST 2 23 Jan 04:55:21 04:58:15 18° 247° (WSW) 05:01:09 435.215
GOMX 1 23 Jan 04:55:29 04:57:26 13° 86° (E) 04:59:22 467.674
M-CUBED/EXP-1 PRIME 23 Jan 04:57:53 04:59:08 11° 265° (W) 05:00:22 437.505
PCSat 23 Jan 05:04:37 05:06:49 12° 358° (N) 05:09:01 145.827
BRITE-PL 23 Jan 05:05:15 05:09:52 40° 96° (E) 05:14:07 437.365/2234.400
KKS-1 23 Jan 05:18:01 05:20:37 15° 271° (W) 05:23:14 437.445
GONETS M04 23 Jan 05:19:41 05:27:02 28° 59° (ENE) 05:34:20
Cosmos 2491 23 Jan 05:27:13 05:31:45 15° 315° (NW) 05:36:18 435.465 / 435.565
DANDE 23 Jan 05:30:16 05:34:24 31° 298° (WNW) 05:39:45 436.750
STRAND 1 23 Jan 05:35:13 05:39:11 24° 59° (ENE) 05:43:11 437.568
AO-7 23 Jan 05:35:55 05:43:57 53° 301° (WNW) 05:51:56 29.400- 29.500
CUBESAT XI-V 23 Jan 05:53:52 05:56:44 16° 272° (W) 05:59:36 437.345
CUSAT 1 23 Jan 05:55:13 05:58:33 14° 316° (NW) 06:02:08 437.405
Cosmos 2499 23 Jan 06:00:29 06:07:21 45° 71° (ENE) 06:14:04 435.465 / 435.565
STARS 23 Jan 06:04:16 06:05:30 11° 273° (W) 06:06:45 437.465
CUTE-I 23 Jan 06:05:36 06:10:11 28° 94° (E) 06:14:44 437.470
HORYU 2 23 Jan 06:11:33 06:16:01 75° 103° (ESE) 06:20:30 437.375
ITAMSAT 1 23 Jan 06:15:54 06:16:56 11° 312° (NW) 06:17:58 435.822/435.867
O/OREOS (USA 219) 23 Jan 06:24:48 06:29:15 70° 113° (ESE) 06:33:43 437.305
CINEMA 3 23 Jan 06:26:52 06:27:17 10° 86° (E) 06:27:42 145.822/145.860
GOMX 1 23 Jan 06:31:46 06:36:13 76° 287° (WNW) 06:40:26 467.674
BRITE-PL 23 Jan 06:43:59 06:48:12 29° 297° (WNW) 06:52:08 437.365/2234.400
NOAA 15 23 Jan 06:47:23 06:52:41 62° 102° (ESE) 06:57:55 137.62
PCSat 23 Jan 06:48:47 06:52:30 18° 24° (NNE) 06:56:12 145.827
Cubesat XI-IV 23 Jan 06:49:26 06:54:44 62° 102° (ESE) 07:00:02 437.490
CUTE 1.7 + AOD 2 23 Jan 06:53:21 06:54:51 12° 86° (E) 06:56:22 437.475
DOVE 4 23 Jan 06:55:03 06:59:16 76° 103° (ESE) 07:03:25 437.250
LilacSat-2 23 Jan 06:56:29 07:00:23 85° 282° (WNW) 07:04:16 437.200
RS-15 23 Jan 06:57:10 07:09:31 63° 38° (NE) 07:21:31 29.354- 29.394
STRAND 1 23 Jan 07:12:57 07:17:59 61° 258° (WSW) 07:23:04 437.568
GONETS M04 23 Jan 07:16:08 07:25:01 84° 263° (W) 07:33:52
NOAA 18 23 Jan 07:18:45 07:24:10 60° 102° (ESE) 07:29:33 137.9125
CANX-2 23 Jan 07:21:38 07:25:14 25° 93° (E) 07:28:48 2200.000
SO-50 23 Jan 07:22:55 07:27:11 35° 119° (ESE) 07:31:25 436.795
SEEDS 23 Jan 07:26:38 07:29:29 17° 90° (E) 07:32:19 437.485
COMPASS 1 23 Jan 07:27:05 07:28:35 12° 86° (E) 07:30:05 437.405
AO-7 23 Jan 07:29:52 07:34:56 18° 324° (NW) 07:39:59 29.400- 29.500
AAUSAT CUBESAT 2 23 Jan 07:35:29 07:36:35 11° 86° (E) 07:37:41 437.432
HO-68 23 Jan 07:45:12 07:52:00 43° 98° (E) 07:58:44 435.675
CUTE-I 23 Jan 07:45:20 07:50:28 49° 293° (WNW) 07:55:36 437.470
HORYU 2 23 Jan 07:49:16 07:52:03 16° 302° (WNW) 07:54:50 437.375
Cosmos 2499 23 Jan 07:53:53 08:00:24 39° 273° (W) 08:06:48 435.465 / 435.565
CINEMA 3 23 Jan 08:00:51 08:05:05 88° 107° (ESE) 08:09:23 145.822/145.860
PRISM 23 Jan 08:04:59 08:08:41 31° 66° (ENE) 08:12:23 437.425
TIGRISAT 23 Jan 08:05:23 08:06:48 11° 55° (NE) 08:08:15 435.000
O/OREOS (USA 219) 23 Jan 08:05:52 08:09:09 20° 314° (NW) 08:12:27 437.305
GOMX 1 23 Jan 08:12:10 08:13:28 11° 307° (NW) 08:14:45 467.674
ANTELSAT 23 Jan 08:20:01 08:22:40 16° 59° (ENE) 08:25:21 437.575/2403.000
CUTE 1.7 + AOD 2 23 Jan 08:26:59 08:31:19 86° 283° (WNW) 08:35:37 437.475
NOAA 15 23 Jan 08:27:50 08:32:04 24° 301° (WNW) 08:36:16 137.62
Cubesat XI-IV 23 Jan 08:30:11 08:34:27 25° 301° (WNW) 08:38:40 437.490
PCSat 23 Jan 08:31:47 08:37:08 54° 48° (NE) 08:42:27 145.827
LilacSat-2 23 Jan 08:33:13 08:34:00 11° 303° (WNW) 08:34:48 437.200
CUBEBUG 2 23 Jan 08:34:14 08:38:30 51° 100° (E) 08:42:52 437.445
DOVE 4 23 Jan 08:34:15 08:36:25 14° 302° (WNW) 08:38:34 437.250
JAS-2 23 Jan 08:39:20 08:42:49 17° 48° (NE) 08:46:30 435.910
FUNcube-1 23 Jan 08:42:48 08:46:28 25° 93° (E) 08:50:10 145.935
UWE-3 23 Jan 08:55:54 09:00:13 56° 100° (E) 09:04:38 435.000/436.395/437.385
CANX-2 23 Jan 08:57:11 09:01:12 39° 292° (WNW) 09:05:11 2200.000
NOAA 18 23 Jan 09:00:02 09:04:28 26° 302° (WNW) 09:08:54 137.9125
COMPASS 1 23 Jan 09:00:29 09:04:43 83° 288° (WNW) 09:08:55 437.405
SEEDS 23 Jan 09:01:20 09:05:32 56° 288° (WNW) 09:09:41 437.485
SO-50 23 Jan 09:03:07 09:07:37 43° 319° (NW) 09:12:03 436.795
ZACube-1 23 Jan 09:07:26 09:11:41 46° 99° (E) 09:16:00 437.345
AAUSAT CUBESAT 2 23 Jan 09:08:27 09:12:41 87° 291° (WNW) 09:16:51 437.432
RS-15 23 Jan 09:10:14 09:22:06 56° 245° (WSW) 09:33:33 29.354- 29.394
GONETS M04 23 Jan 09:14:26 09:20:30 21° 285° (WNW) 09:26:35
UNISAT 6 23 Jan 09:26:15 09:30:27 65° 73° (ENE) 09:34:43 437.425
CUTE-I 23 Jan 09:28:43 09:29:20 10° 313° (NW) 09:29:57 437.470
HO-68 23 Jan 09:33:00 09:39:50 48° 298° (WNW) 09:46:37 435.675
Oscar 11 23 Jan 09:37:50 09:42:14 76° 103° (ESE) 09:46:35 145.826/435.025
TIGRISAT 23 Jan 09:38:32 09:42:47 80° 73° (ENE) 09:47:04 435.000
CINEMA 3 23 Jan 09:39:48 09:41:38 13° 302° (WNW) 09:43:29 145.822/145.860
PRISM 23 Jan 09:40:17 09:43:58 30° 264° (W) 09:47:39 437.425
ANTELSAT 23 Jan 09:54:41 09:58:54 67° 258° (WSW) 10:03:11 437.575/2403.000
DELFI C3 23 Jan 09:57:11 10:01:02 43° 98° (E) 10:04:50 145.870
CUTE 1.7 + AOD 2 23 Jan 10:04:39 10:06:29 13° 303° (WNW) 10:08:17 437.475
CUBEBUG 2 23 Jan 10:11:34 10:14:50 21° 297° (WNW) 10:18:10 437.445
QB50P1 23 Jan 10:14:41 10:18:05 25° 64° (ENE) 10:21:30 145.935-145.965
PCSat 23 Jan 10:15:34 10:20:18 31° 248° (WSW) 10:25:00 145.827
FUNcube-1 23 Jan 10:18:43 10:22:50 41° 291° (WNW) 10:27:02 145.935
POLYITAN 1 23 Jan 10:19:44 10:23:17 27° 65° (ENE) 10:26:51 437.675
QB50P2 23 Jan 10:20:59 10:24:38 30° 66° (ENE) 10:28:19 145.880/145.840
JAS-2 23 Jan 10:21:15 10:26:45 75° 71° (ENE) 10:32:58 435.910
HUMSAT D 23 Jan 10:25:34 10:29:47 50° 99° (E) 10:33:58 437.325/437.525
UWE-3 23 Jan 10:33:09 10:36:21 20° 298° (WNW) 10:39:36 435.000/436.395/437.385
ESTCUBE 1 23 Jan 10:37:08 10:38:21 11° 85° (E) 10:39:33 437.505/2401.250
COMPASS 1 23 Jan 10:38:03 10:39:34 12° 304° (NW) 10:41:05 437.405
POPSAT HIP 1 23 Jan 10:41:16 10:45:13 42° 69° (ENE) 10:49:11 437.405
ZACube-1 23 Jan 10:44:14 10:47:44 24° 296° (WNW) 10:51:17 437.345
AAUSAT CUBESAT 2 23 Jan 10:45:48 10:47:29 12° 303° (WNW) 10:49:08 437.432
SO-50 23 Jan 10:46:19 10:49:13 16° 342° (NNW) 10:52:04 436.795
DUCHIFAT 1 23 Jan 10:47:54 10:51:50 43° 69° (ENE) 10:55:48 145.980
BY70-1 23 Jan 10:54:54 10:57:27 21° 94° (E) 10:59:52 436.1900
NANOSAT C BR1 23 Jan 10:55:03 10:59:07 55° 71° (ENE) 11:03:14 145.865
UNISAT 6 23 Jan 11:05:11 11:07:39 15° 271° (W) 11:10:07 437.425
BUGSAT 1 23 Jan 11:09:35 11:13:03 28° 66° (ENE) 11:16:30 437.445
CUBEBUG 1 23 Jan 11:11:14 11:13:30 14° 88° (E) 11:15:45 437.445
AO-7 23 Jan 11:12:02 11:13:08 10° 20° (NNE) 11:14:15 29.400- 29.500
CUSAT 1 23 Jan 11:15:06 11:18:08 12° 41° (NE) 11:21:09 437.405
Oscar 11 23 Jan 11:15:15 11:17:48 15° 302° (WNW) 11:20:22 145.826/435.025
TIGRISAT 23 Jan 11:18:24 11:20:04 12° 273° (W) 11:21:46 435.000
HO-68 23 Jan 11:22:35 11:25:55 14° 321° (NW) 11:29:14 435.675
RS-15 23 Jan 11:26:09 11:31:29 14° 269° (W) 11:36:46 29.354- 29.394
DELFI C3 23 Jan 11:32:34 11:35:35 21° 297° (WNW) 11:38:35 145.870
AISAT 23 Jan 11:36:02 11:38:49 16° 90° (E) 11:41:36 437.250
